Weather Roundup
Issued by NWS Chicago, IL

Home | Current Version | Previous Version | Graphics & Text | Print | Product List | Glossary On
Versions: 1 2 3 4 5 6 7 8 9 10 11 12 13 14 15 16 17 18 19 20 21 22 23 24 25 26 27 28 29 30 31 32 33 34 35 36 37 38 39 40 41 42 43 44 45 46 47 48 49 50
067
NZUS59 KLOT 300203
HRRLOT

CHICAGO AREA WEATHER ROUNDUP
NATIONAL WEATHER SERVICE CHICAGO/ROMEOVILLE IL
900 PM CDT SAT APR 29 2017

NOTE: "FAIR" INDICATES FEW OR NO CLOUDS BELOW 12,000 FEET WITH NO
SIGNIFICANT WEATHER AND/OR OBSTRUCTIONS TO VISIBILITY.

* THESE STATIONS ARE NOT UNDER NWS QUALITY CONTROL. THEY ALSO MAY NOT
  REPORT WEATHER SUCH AS PRECIPITATION OR FOG.

ILZ005-006-012>014-019>023-300300-
NORTHEAST ILLINOIS

CITY           SKY/WX    TMP DP  RH WIND       PRES   REMARKS
OHARE          HVY RAIN  44  41  89 NE24G36   29.99F FOG
MIDWAY         RAIN      46  44  93 NE31G45   29.96F FOG
AURORA         HVY RAIN  43  41  93 NE31G41   29.92F FOG
LANSING*       CLOUDY    45  45 100 NE25G39   29.91F
WAUKEGAN       LGT RAIN  41  40  96 NE16G28   30.06F
DUPAGE AIRPORT HVY RAIN  42  42 100 NE29G38   29.95F FOG
WHEELING       LGT RAIN  42  42 100 NE21G31   30.03F
MORRIS*        LGT RAIN  44  42  94 NE8G23    29.92R
NORTHERLY ISL    N/A     44  43  96 N23         N/A
$$

WIZ051-052-058>065-066-070>072-300300-
SOUTHEAST WISCONSIN

CITY           SKY/WX    TMP DP  RH WIND       PRES   REMARKS
MILWAUKEE      LGT RAIN  40  37  89 NE22G31   30.12F
KENOSHA*       LGT RAIN  40  37  89 NE20G28   30.09F
RACINE*        LGT RAIN  40  36  86 NE20G28   30.13F
WAUKESHA       LGT RAIN  36  34  93 NE15G21   30.14F FOG
$$

INZ001>003-010>013-019-020-300300-
NORTHWEST INDIANA

CITY           SKY/WX    TMP DP  RH WIND       PRES   REMARKS
GARY*          CLOUDY    46  45  93 NE22G44   29.97F
MICHIGAN CITY* NOT AVBL
RENSSELAER*    NOT AVBL
VALPARAISO     TSTM      50  47  89 E23G31    29.95F
$$

LMZ740>746-300300-
SOUTHERN LAKE MICHIGAN

STATION/POSITION TIME  SKY/WX   TEMP WIND        PRES    VSBY
                                AIR  DIR/SP/G
                 (UTC)          (F)  (DEG/KT/KT) (MB)    (MI)
HARRISON CRIB    0110            44   20/ 33/ 37   N/A
BURNHAM HARBOR   0200            44   30/ 24/ 31   N/A
CALUMET HARBOR   0130            44   20/ 24/ 33 1015.2F
BURNS HARBOR     0044            45   10/ 26     1017.6
MICHIGAN CITY    0140            46   30/ 26/ 31   N/A
$$

ABBREVIATIONS USED IN REMARKS
   TC - TEMPERATURE IN CELSIUS
  WCI - WIND CHILL INDEX
   HX - HEAT INDEX
  VSB - VISIBILITY
$$




USA.gov is the U.S. government's official web portal to all federal, state and local government web resources and services.